EW5085 Fripp Island SC US current weather conditions

sailwx.info

Wind from 044 at 2 knots gusting 4

Air temperature 15.6° C
Dewpoint 9.5° C

Last reported at 2019-Nov-20 16:53 UTC.
Time now 2019-Nov-20 17:24 UTC

Location: N 32°20' W 080°29'.
View on Google Maps.

See reports from other nearby stations

  
Tides and Currents Weather Stations Pressure Air Temp Water Temp Dewpoint Dewpoint Depression Visibility Wind Speed Wind Dir Waves Ship Positions
date/time (UTC)wind fromknots sea level pressurealtimeterstation pressurevisibilityair tempwater tempwave heightnotes
2019-Nov-20 17:08 046 2 gusting 5 15.6
2019-Nov-20 17:03 041 2 gusting 5 15.6
2019-Nov-20 16:53 044 2 gusting 4 15.6
2019-Nov-20 16:48 043 2 gusting 6 15.0
2019-Nov-20 16:43 052 2 gusting 6 15.0
2019-Nov-20 16:38 350 2 gusting 5 15.0
2019-Nov-20 16:33 036 2 gusting 4 15.0
2019-Nov-20 16:28 044 3 gusting 5 15.0
2019-Nov-20 16:23 043 3 gusting 7 15.0
2019-Nov-20 16:18 046 3 gusting 7 15.0
2019-Nov-20 16:13 355 3 gusting 6 14.4
2019-Nov-20 16:08 041 3 gusting 6 14.4
2019-Nov-20 16:03 005 2 gusting 6 14.4
2019-Nov-20 15:58 038 3 gusting 6 14.4
2019-Nov-20 15:53 042 3 gusting 6 14.4
2019-Nov-20 15:48 042 3 gusting 5 14.4
2019-Nov-20 15:43 044 3 gusting 5 14.4
2019-Nov-20 15:38 045 3 gusting 5 14.4
2019-Nov-20 15:33 026 3 gusting 6 13.9
2019-Nov-20 15:28 057 2 gusting 6 13.9
2019-Nov-20 15:23 049 2 gusting 5 13.9
2019-Nov-20 15:18 355 2 gusting 6 13.3
2019-Nov-20 15:13 011 2 gusting 6 13.3
2019-Nov-20 15:08 355 2 gusting 5 13.3
2019-Nov-20 15:03 005 3 gusting 6 13.3
2019-Nov-20 14:57 005 3 gusting 6 12.8
2019-Nov-20 14:53 12.8
2019-Nov-20 14:48 12.8
2019-Nov-20 14:43 12.8
2019-Nov-20 14:37 026 2 gusting 3 12.8
2019-Nov-20 14:32 015 1 gusting 4 12.2
2019-Nov-20 14:27 028 2 gusting 4 12.2
2019-Nov-20 14:22 031 2 gusting 4 12.2
2019-Nov-20 14:17 011 2 gusting 5 11.7
2019-Nov-20 14:12 355 2 gusting 5 11.7
2019-Nov-20 14:07 009 2 gusting 6 11.7
2019-Nov-20 14:02 11.7
2019-Nov-20 13:57 005 2 gusting 4 11.7
2019-Nov-20 13:52 355 2 gusting 4 11.7
2019-Nov-20 13:47 011 1 gusting 4 11.7
2019-Nov-20 13:42 046 1 gusting 4 11.7
2019-Nov-20 13:37 005 1 gusting 4 11.7
2019-Nov-20 13:32 014 1 gusting 3 11.1
2019-Nov-20 13:27 010 1 gusting 3 11.1
2019-Nov-20 13:22 11.1
2019-Nov-20 13:17 355 1 gusting 6 11.1
2019-Nov-20 13:12 321 1 gusting 6 10.6
2019-Nov-20 13:07 321 0 gusting 6 10.6
2019-Nov-20 13:02 323 0 gusting 3 10.6
2019-Nov-20 12:57 336 0 gusting 2 10.6
2019-Nov-20 12:52 316 0 gusting 2 10.0
2019-Nov-20 12:47 316 10.0
2019-Nov-20 12:42 321 10.0
2019-Nov-20 12:37 322 10.0
2019-Nov-20 12:32 322 10.0
2019-Nov-20 12:27 323 9.4
2019-Nov-20 12:22 318 9.4
2019-Nov-20 12:17 318 9.4
2019-Nov-20 12:12 319 10.0
2019-Nov-20 12:07 322 10.0
2019-Nov-20 12:02 322 10.0
2019-Nov-20 11:57 317 0 gusting 2 10.0
2019-Nov-20 11:52 318 0 gusting 4 10.0
2019-Nov-20 11:47 320 0 gusting 4 10.0
2019-Nov-20 11:42 311 0 gusting 2 10.0
2019-Nov-20 11:37 296 0 gusting 4 10.6
2019-Nov-20 11:32 295 0 gusting 4 10.6
2019-Nov-20 11:27 317 0 gusting 3 10.6
2019-Nov-20 11:22 298 0 gusting 4 10.6
2019-Nov-20 11:17 320 10.6
2019-Nov-20 11:12 317 10.6
2019-Nov-20 11:07 318 10.6
2019-Nov-20 11:02 317 10.6
2019-Nov-20 10:57 279 0 gusting 2 10.6
2019-Nov-20 10:52 279 1 gusting 2 10.6
2019-Nov-20 10:47 279 1 gusting 3 11.1
2019-Nov-20 10:42 279 2 gusting 3 11.1
2019-Nov-20 10:37 277 2 gusting 3 11.1
2019-Nov-20 10:32 278 1 gusting 3 11.1
2019-Nov-20 10:27 277 2 gusting 3 11.1
2019-Nov-20 10:22 277 2 gusting 3 11.1
2019-Nov-20 10:17 277 2 gusting 3 11.1
2019-Nov-20 10:12 276 2 gusting 3 11.1
2019-Nov-20 10:07 276 2 gusting 3 11.1
2019-Nov-20 10:02 273 2 gusting 3 11.1
2019-Nov-20 09:57 273 2 gusting 3 11.1
2019-Nov-20 09:52 273 2 gusting 3 11.1
2019-Nov-20 09:47 273 2 gusting 3 11.1
2019-Nov-20 09:42 273 2 gusting 3 11.1
2019-Nov-20 09:37 273 2 gusting 3 11.7
2019-Nov-20 09:32 273 2 gusting 3 11.7
2019-Nov-20 09:27 273 2 gusting 3 11.7
2019-Nov-20 09:22 273 2 gusting 5 11.7
2019-Nov-20 09:17 273 3 gusting 5 11.7
2019-Nov-20 09:12 272 3 gusting 5 11.7
2019-Nov-20 09:07 272 3 gusting 5 11.7
2019-Nov-20 09:02 271 3 gusting 5 11.7
2019-Nov-20 08:57 273 3 gusting 5 11.7
2019-Nov-20 08:52 275 2 gusting 3 12.2
2019-Nov-20 08:47 276 2 gusting 5 12.2
2019-Nov-20 08:42 275 2 gusting 5 12.2
2019-Nov-20 08:37 276 2 gusting 5 12.2
2019-Nov-20 08:32 275 3 gusting 5 12.2
2019-Nov-20 08:27 277 3 gusting 5 12.2
2019-Nov-20 08:22 277 3 gusting 6 12.2
2019-Nov-20 08:17 278 3 gusting 6 12.2
2019-Nov-20 08:12 277 3 gusting 6 12.2
2019-Nov-20 08:07 271 3 gusting 6 12.8
2019-Nov-20 08:02 272 3 gusting 6 12.8
2019-Nov-20 07:57 269 3 gusting 6 12.8
2019-Nov-20 07:52 272 4 gusting 6 12.8
2019-Nov-20 07:47 267 4 gusting 6 12.8
2019-Nov-20 07:42 279 4 gusting 6 12.8
2019-Nov-20 07:37 278 4 gusting 6 12.8
2019-Nov-20 07:32 269 4 gusting 6 12.8
2019-Nov-20 07:27 267 3 gusting 6 12.8
2019-Nov-20 07:22 275 3 gusting 6 12.8
2019-Nov-20 07:17 270 3 gusting 6 12.2
2019-Nov-20 07:12 271 3 gusting 5 12.2
2019-Nov-20 07:07 268 2 gusting 5 12.2
2019-Nov-20 07:02 265 2 gusting 5 12.2
2019-Nov-20 06:57 258 2 gusting 6 12.2
2019-Nov-20 06:52 236 3 gusting 6 12.2
2019-Nov-20 06:46 237 3 gusting 6 12.2
2019-Nov-20 06:41 240 3 gusting 6 12.2
2019-Nov-20 06:36 238 3 gusting 6 12.2
2019-Nov-20 06:31 240 3 gusting 6 11.7
2019-Nov-20 06:26 236 3 gusting 4 11.7
2019-Nov-20 06:21 240 3 gusting 4 11.7
2019-Nov-20 06:16 244 2 gusting 4 11.7
2019-Nov-20 06:11 252 2 gusting 6 11.7
2019-Nov-20 06:06 267 2 gusting 6 11.7
2019-Nov-20 06:01 264 2 gusting 5 11.7
2019-Nov-20 05:56 247 2 gusting 3 11.1
2019-Nov-20 05:51 242 2 gusting 4 11.1
2019-Nov-20 05:46 242 2 gusting 4 11.1
2019-Nov-20 05:41 245 2 gusting 4 11.1
2019-Nov-20 05:36 245 2 gusting 4 11.1
2019-Nov-20 05:31 252 2 gusting 3 11.1
2019-Nov-20 05:26 278 2 gusting 3 11.1
2019-Nov-20 05:21 278 2 gusting 3 10.6
2019-Nov-20 05:16 278 1 gusting 3 10.6
2019-Nov-20 05:11 284 1 gusting 2 10.6
2019-Nov-20 05:06 284 1 gusting 2 10.6
2019-Nov-20 05:01 284 1 gusting 2 10.6
2019-Nov-20 04:56 284 1 gusting 2 10.6
2019-Nov-20 04:51 284 1 gusting 2 10.6
2019-Nov-20 04:46 284 1 gusting 2 11.1
2019-Nov-20 04:41 284 1 gusting 1 11.1
2019-Nov-20 04:36 284 1 gusting 1 11.1
2019-Nov-20 04:31 284 1 gusting 2 11.1
2019-Nov-20 04:26 284 1 gusting 2 10.6
2019-Nov-20 04:21 284 1 gusting 1 10.6
2019-Nov-20 04:16 284 1 gusting 2 10.6
2019-Nov-20 04:11 284 1 gusting 2 11.1
2019-Nov-20 04:06 284 1 gusting 2 10.6
2019-Nov-20 04:01 284 1 gusting 2 10.6
2019-Nov-20 03:56 284 1 gusting 2 10.6
2019-Nov-20 03:51 284 1 gusting 2 10.6
2019-Nov-20 03:46 284 1 gusting 2 10.6
2019-Nov-20 03:41 284 1 gusting 2 10.6
2019-Nov-20 03:36 284 1 gusting 2 11.1
2019-Nov-20 03:31 284 1 gusting 2 11.1
2019-Nov-20 03:26 284 1 gusting 2 11.1
2019-Nov-20 03:21 284 1 gusting 2 11.7
2019-Nov-20 03:16 284 1 gusting 2 11.7
2019-Nov-20 03:11 284 1 gusting 2 11.7
2019-Nov-20 03:06 284 1 gusting 2 11.7
2019-Nov-20 03:01 284 1 gusting 2 11.7
2019-Nov-20 02:56 284 1 gusting 2 11.7
2019-Nov-20 02:51 284 2 gusting 3 11.7
2019-Nov-20 02:46 284 2 gusting 3 11.7
2019-Nov-20 02:41 284 2 gusting 3 11.7
2019-Nov-20 02:36 284 1 gusting 3 11.7
2019-Nov-20 02:31 284 0 gusting 3 11.7
2019-Nov-20 02:26 284 11.7
2019-Nov-20 02:21 284 11.7
2019-Nov-20 02:16 284 11.7
2019-Nov-20 02:11 284 11.7
2019-Nov-20 02:06 284 11.7
2019-Nov-20 02:01 284 11.7
2019-Nov-20 01:56 284 11.7
2019-Nov-20 01:51 284 11.7
2019-Nov-20 01:46 284 11.1
2019-Nov-20 01:41 284 11.1
2019-Nov-20 01:36 284 11.1
2019-Nov-20 01:31 284 11.1
2019-Nov-20 01:26 284 11.1
2019-Nov-20 01:21 284 11.1
2019-Nov-20 01:16 284 11.7
2019-Nov-20 01:11 284 11.7
2019-Nov-20 01:06 284 11.7
2019-Nov-20 01:01 284 11.7
2019-Nov-20 00:56 284 11.7
2019-Nov-20 00:51 284 11.7
2019-Nov-20 00:46 284 11.7
2019-Nov-20 00:41 284 11.7
2019-Nov-20 00:36 284 11.7
2019-Nov-20 00:31 284 12.2
2019-Nov-20 00:26 284 12.2
2019-Nov-20 00:21 284 12.2
2019-Nov-20 00:16 284 12.2
2019-Nov-20 00:11 284 12.2
2019-Nov-20 00:06 285 12.2
2019-Nov-20 00:01 285 12.2
2019-Nov-19 23:56 285 12.2
2019-Nov-19 23:51 285 12.2
2019-Nov-19 23:45 285 12.2
2019-Nov-19 23:40 285 12.8
2019-Nov-19 23:35 285 12.8
2019-Nov-19 23:30 285 12.8
2019-Nov-19 23:25 285 12.8
2019-Nov-19 23:21 285 13.3
2019-Nov-19 23:15 285 13.3
2019-Nov-19 23:10 285 13.3
2019-Nov-19 23:05 285 13.3
2019-Nov-19 23:00 285 13.3
2019-Nov-19 22:55 285 13.3
2019-Nov-19 22:50 285 13.3
2019-Nov-19 22:45 285 13.9
2019-Nov-19 22:40 285 13.9
2019-Nov-19 22:35 285 13.9
2019-Nov-19 22:30 285 13.9
2019-Nov-19 22:25 285 14.4
2019-Nov-19 22:20 285 14.4
2019-Nov-19 22:15 285 14.4
2019-Nov-19 22:10 285 14.4
2019-Nov-19 22:05 285 15.0
2019-Nov-19 22:00 285 15.0
2019-Nov-19 21:55 285 0 gusting 2 15.0
2019-Nov-19 21:50 285 0 gusting 2 15.6
2019-Nov-19 21:45 285 0 gusting 2 15.6
2019-Nov-19 21:40 285 1 gusting 3 15.6
2019-Nov-19 21:35 285 1 gusting 3 15.6
2019-Nov-19 21:30 285 1 gusting 3 15.6
2019-Nov-19 21:25 284 1 gusting 5 15.6
2019-Nov-19 21:20 284 2 gusting 5 15.6
2019-Nov-19 21:15 285 2 gusting 5 16.1
2019-Nov-19 21:10 288 2 gusting 4 16.1
2019-Nov-19 21:05 289 0 gusting 4 16.1
2019-Nov-19 21:00 313 16.1
2019-Nov-19 20:55 320 0 gusting 3 15.6
2019-Nov-19 20:50 321 1 gusting 4 15.6
2019-Nov-19 20:45 005 1 gusting 4 16.1
2019-Nov-19 20:40 300 0 gusting 4 16.1
2019-Nov-19 20:35 282 16.1
2019-Nov-19 20:30 282 0 gusting 5 16.1
2019-Nov-19 20:25 282 1 gusting 5 16.1
2019-Nov-19 20:20 279 1 gusting 5 16.1
2019-Nov-19 20:15 279 2 gusting 5 15.6
2019-Nov-19 20:10 281 2 gusting 6 15.6
2019-Nov-19 20:05 280 3 gusting 6 15.6
2019-Nov-19 20:00 279 3 gusting 6 15.6
2019-Nov-19 19:55 279 3 gusting 6 15.6
2019-Nov-19 19:50 273 3 gusting 5 15.6
2019-Nov-19 19:45 277 4 gusting 6 15.6
2019-Nov-19 19:40 277 4 gusting 6 15.6
2019-Nov-19 19:35 274 3 gusting 6 15.6
2019-Nov-19 19:30 279 4 gusting 6 15.0
2019-Nov-19 19:25 277 4 gusting 6 15.0
2019-Nov-19 19:20 271 5 gusting 7 15.0
2019-Nov-19 19:15 275 4 gusting 7 15.0
2019-Nov-19 19:10 277 4 gusting 7 15.0
2019-Nov-19 19:05 287 4 gusting 7 15.0
2019-Nov-19 19:00 275 5 gusting 8 15.0
2019-Nov-19 18:55 279 5 gusting 8 15.0
2019-Nov-19 18:50 275 5 gusting 6 15.0
2019-Nov-19 18:40 269 5 gusting 7 15.0
2019-Nov-19 18:35 269 5 gusting 6 15.0
2019-Nov-19 18:30 275 4 gusting 6 14.4
2019-Nov-19 18:25 274 4 gusting 6 14.4
2019-Nov-19 18:20 278 4 gusting 6 14.4
2019-Nov-19 18:15 270 3 gusting 6 15.0
2019-Nov-19 18:10 272 3 gusting 6 15.0
2019-Nov-19 18:05 273 4 gusting 6 15.0
2019-Nov-19 18:00 271 4 gusting 6 14.4
2019-Nov-19 17:55 263 3 gusting 6 14.4
2019-Nov-19 17:50 261 3 gusting 5 14.4
2019-Nov-19 17:45 275 3 gusting 5 13.9
2019-Nov-19 17:40 274 2 gusting 5 13.9
2019-Nov-19 17:35 275 2 gusting 3 13.3
2019-Nov-19 17:30 275 2 gusting 5 13.3
2019-Nov-19 17:25 275 2 gusting 5 13.3
2019-Nov-19 17:19 273 2 gusting 5 13.3
2019-Nov-19 17:14 277 1 gusting 3 13.3
2019-Nov-19 17:09 278 1 gusting 3 13.3
2019-Nov-19 17:04 279 0 gusting 3 13.3
2019-Nov-19 16:59 279 13.3
2019-Nov-19 16:54 279 1 gusting 3 13.3
2019-Nov-19 16:49 279 2 gusting 5 13.3
2019-Nov-19 16:44 279 2 gusting 6 13.3
2019-Nov-19 16:39 280 2 gusting 6 13.3
2019-Nov-19 16:34 278 2 gusting 5 13.3
2019-Nov-19 16:29 277 2 gusting 3 13.3
2019-Nov-19 16:24 277 3 gusting 5 13.3
2019-Nov-19 16:19 276 3 gusting 5 13.3
2019-Nov-19 16:14 280 2 gusting 5 13.3
2019-Nov-19 16:09 282 2 gusting 5 13.3
2019-Nov-19 16:04 284 2 gusting 6 13.3
2019-Nov-19 15:59 279 1 gusting 6 13.3
2019-Nov-19 15:54 290 0 gusting 3 13.3
2019-Nov-19 15:49 323 13.3
2019-Nov-19 15:44 319 0 gusting 3 12.8
2019-Nov-19 15:39 321 0 gusting 3 12.8
2019-Nov-19 15:34 306 12.8
2019-Nov-19 15:29 311 12.8
2019-Nov-19 15:24 311 12.8
2019-Nov-19 15:19 312 12.8
2019-Nov-19 15:14 312 12.2
2019-Nov-19 15:09 298 12.2
2019-Nov-19 15:04 306 12.2
2019-Nov-19 14:59 306 12.2
2019-Nov-19 14:54 297 12.2
2019-Nov-19 14:49 294 12.2
2019-Nov-19 14:44 294 12.2
2019-Nov-19 14:39 295 12.2
2019-Nov-19 14:34 294 11.7
2019-Nov-19 14:29 292 11.7
2019-Nov-19 14:24 302 11.7
2019-Nov-19 14:19 302 11.7
2019-Nov-19 14:14 290 11.7
2019-Nov-19 14:09 278 11.7
2019-Nov-19 14:04 278 11.7
2019-Nov-19 13:59 278 0 gusting 2 11.7
2019-Nov-19 13:54 294 0 gusting 2 11.7
2019-Nov-19 13:49 294 11.7
2019-Nov-19 13:44 268 0 gusting 2 11.1
2019-Nov-19 13:39 268 0 gusting 2 11.1
2019-Nov-19 13:34 268 1 gusting 3 11.1
2019-Nov-19 13:29 268 1 gusting 3 11.1
2019-Nov-19 13:24 268 2 gusting 3 11.1
2019-Nov-19 13:19 268 2 gusting 3 11.1
2019-Nov-19 13:14 268 1 gusting 2 11.1
2019-Nov-19 13:09 268 1 gusting 3 11.1
2019-Nov-19 13:04 268 1 gusting 3 11.1
2019-Nov-19 12:59 268 1 gusting 2 11.1
2019-Nov-19 12:54 268 1 gusting 3 11.1
2019-Nov-19 12:49 268 2 gusting 3 11.1
2019-Nov-19 12:44 268 1 gusting 3 11.1
2019-Nov-19 12:39 268 0 gusting 3 11.1
2019-Nov-19 12:34 196 11.1
2019-Nov-19 12:29 196 11.1
2019-Nov-19 12:24 186 11.1
2019-Nov-19 12:19 186 11.1
2019-Nov-19 12:14 186 11.1
2019-Nov-19 12:09 186 11.1
2019-Nov-19 12:04 186 11.1
2019-Nov-19 11:59 183 11.1
2019-Nov-19 11:54 183 11.1
2019-Nov-19 11:49 183 11.1
2019-Nov-19 11:44 183 11.1
2019-Nov-19 11:39 183 11.1
2019-Nov-19 11:34 183 11.1
2019-Nov-19 11:29 183 11.1
2019-Nov-19 11:24 183 11.1
2019-Nov-19 11:19 183 11.1
2019-Nov-19 11:14 183 11.1
2019-Nov-19 11:09 183 11.7
2019-Nov-19 11:04 183 11.7
2019-Nov-19 10:59 183 11.7
2019-Nov-19 10:54 183 11.7
2019-Nov-19 10:49 183 11.7
2019-Nov-19 10:44 182 11.7
2019-Nov-19 10:39 179 11.7
2019-Nov-19 10:34 163 11.7
2019-Nov-19 10:28 163 11.7
2019-Nov-19 10:23 163 11.7
2019-Nov-19 10:18 163 12.2
2019-Nov-19 10:13 163 12.2
2019-Nov-19 10:08 163 12.2
2019-Nov-19 10:03 163 12.2
2019-Nov-19 09:58 163 12.8
2019-Nov-19 09:53 163 12.8
2019-Nov-19 09:48 163 12.8
2019-Nov-19 09:43 163 12.8
2019-Nov-19 09:38 163 12.8
2019-Nov-19 09:33 163 13.3
2019-Nov-19 09:28 163 13.3
2019-Nov-19 09:23 163 13.3
2019-Nov-19 09:18 063 13.3
2019-Nov-19 09:13 063 13.3
2019-Nov-19 09:08 063 13.3
2019-Nov-19 09:03 063 13.3
2019-Nov-19 08:58 063 13.9
2019-Nov-19 08:53 063 13.9
2019-Nov-19 08:48 063 13.9
2019-Nov-19 08:43 063 13.9
2019-Nov-19 08:38 063 13.9
2019-Nov-19 08:33 063 13.9
2019-Nov-19 08:28 063 13.9
2019-Nov-19 08:23 063 13.9
2019-Nov-19 08:18 063 13.9
2019-Nov-19 08:13 063 13.9
2019-Nov-19 08:08 063 13.9
2019-Nov-19 08:03 063 13.9
2019-Nov-19 07:58 063 13.9
2019-Nov-19 07:53 063 13.9
2019-Nov-19 07:48 063 13.9
2019-Nov-19 07:43 063 13.9
2019-Nov-19 07:38 063 13.9
2019-Nov-19 07:33 063 13.9
2019-Nov-19 07:28 063 13.9
2019-Nov-19 07:23 063 13.9
2019-Nov-19 07:18 063 13.9
2019-Nov-19 07:13 063 13.9
2019-Nov-19 07:08 063 13.9
2019-Nov-19 07:03 063 13.9
2019-Nov-19 06:58 063 13.9
2019-Nov-19 06:53 063 13.9
2019-Nov-19 06:48 063 13.3
2019-Nov-19 06:43 063 13.3
2019-Nov-19 06:38 063 13.3
2019-Nov-19 06:33 063 13.3
2019-Nov-19 06:28 063 13.3
2019-Nov-19 06:23 063 13.3
2019-Nov-19 06:17 063 13.3
2019-Nov-19 06:12 063 13.3
2019-Nov-19 06:07 063 13.3
2019-Nov-19 06:02 063 13.3
2019-Nov-19 05:57 063 13.3
2019-Nov-19 05:52 063 13.3
2019-Nov-19 05:47 063 13.3
2019-Nov-19 05:42 063 13.3
2019-Nov-19 05:37 063 12.8
2019-Nov-19 05:32 063 12.8
2019-Nov-19 05:27 063 12.8
2019-Nov-19 05:22 063 12.8
2019-Nov-19 05:17 063 12.8
2019-Nov-19 05:12 063 12.8
2019-Nov-19 05:07 063 12.8
2019-Nov-19 05:02 063 12.8
2019-Nov-19 04:57 063 12.8
2019-Nov-19 04:52 063 12.8
2019-Nov-19 04:47 063 12.8
2019-Nov-19 04:42 063 12.8
2019-Nov-19 04:37 063 12.8
2019-Nov-19 04:32 063 12.8
2019-Nov-19 04:27 063 12.8
2019-Nov-19 04:22 063 12.8
2019-Nov-19 04:17 063 12.8
2019-Nov-19 04:12 063 12.8
2019-Nov-19 04:07 063 12.8
2019-Nov-19 04:02 063 12.8
2019-Nov-19 03:57 063 12.8
2019-Nov-19 03:52 063 12.8
2019-Nov-19 03:47 063 12.8
2019-Nov-19 03:42 063 12.8
2019-Nov-19 03:37 063 12.8
2019-Nov-19 03:32 063 12.8
2019-Nov-19 03:27 063 12.8
2019-Nov-19 03:22 063 12.8
2019-Nov-19 03:17 063 12.8
2019-Nov-19 03:12 063 12.8
2019-Nov-19 03:07 063 12.8
2019-Nov-19 03:02 063 12.8
2019-Nov-19 02:57 063 12.8
2019-Nov-19 02:51 063 12.8
2019-Nov-19 02:46 063 12.8
2019-Nov-19 02:42 063 12.8
2019-Nov-19 02:36 063 12.8
2019-Nov-19 02:32 063 12.8
2019-Nov-19 02:26 063 12.8
2019-Nov-19 02:21 063 12.8
2019-Nov-19 02:16 063 12.8
2019-Nov-19 02:11 063 12.8
2019-Nov-19 02:06 063 12.8
2019-Nov-19 02:01 063 12.8
2019-Nov-19 01:56 063 12.8
2019-Nov-19 01:51 061 12.8
2019-Nov-19 01:46 061 12.8
2019-Nov-19 01:41 061 12.8
2019-Nov-19 01:36 061 12.8
2019-Nov-19 01:31 061 0 gusting 2 12.8
2019-Nov-19 01:26 061 0 gusting 2 12.8
2019-Nov-19 01:21 009 12.2
2019-Nov-19 01:16 009 12.2
2019-Nov-19 01:11 009 12.2
2019-Nov-19 01:06 009 12.2
2019-Nov-19 01:01 009 12.2
2019-Nov-19 00:56 009 12.2
2019-Nov-19 00:51 009 12.2
2019-Nov-19 00:46 009 12.2
2019-Nov-19 00:41 009 12.2
2019-Nov-19 00:36 009 12.2
2019-Nov-19 00:31 009 12.2
2019-Nov-19 00:26 009 12.2
2019-Nov-19 00:21 009 12.2
2019-Nov-19 00:16 009 12.2
2019-Nov-19 00:11 009 12.2
2019-Nov-19 00:06 009 12.2
2019-Nov-19 00:01 009 12.2
2019-Nov-18 23:56 009 12.2
2019-Nov-18 23:51 009 12.2
2019-Nov-18 23:46 009 12.2
2019-Nov-18 23:41 009 12.2
2019-Nov-18 23:36 009 12.2
2019-Nov-18 23:31 009 12.2
2019-Nov-18 23:26 009 12.2
2019-Nov-18 23:21 009 12.2
2019-Nov-18 23:16 009 12.2
2019-Nov-18 23:11 009 12.8
2019-Nov-18 23:06 009 12.8
2019-Nov-18 23:01 009 12.8
2019-Nov-18 22:56 009 12.8
2019-Nov-18 22:51 009 12.8
2019-Nov-18 22:46 009 12.8
2019-Nov-18 22:41 009 12.8
2019-Nov-18 22:36 009 12.8
2019-Nov-18 22:31 009 12.8
2019-Nov-18 22:26 009 13.3
2019-Nov-18 22:21 009 13.3
2019-Nov-18 22:16 009 13.3
2019-Nov-18 22:11 009 13.3
2019-Nov-18 22:06 009 13.3
2019-Nov-18 22:01 009 13.3
2019-Nov-18 21:56 009 13.3
2019-Nov-18 21:51 009 13.3
2019-Nov-18 21:46 009 13.3
2019-Nov-18 21:41 009 0 gusting 2 13.3
2019-Nov-18 21:36 009 0 gusting 2 13.3
2019-Nov-18 21:31 346 13.3
2019-Nov-18 21:26 323 13.9
2019-Nov-18 21:21 323 13.9
2019-Nov-18 21:16 323 13.9
2019-Nov-18 21:11 323 13.9
2019-Nov-18 21:06 323 13.9
2019-Nov-18 21:01 323 14.4
2019-Nov-18 20:56 323 13.9
2019-Nov-18 20:51 323 14.4
2019-Nov-18 20:46 323 14.4
2019-Nov-18 20:41 323 13.9
2019-Nov-18 20:36 323 13.9
2019-Nov-18 20:31 323 13.9
2019-Nov-18 20:26 323 13.9
2019-Nov-18 20:21 323 13.9
2019-Nov-18 20:16 323 13.9
2019-Nov-18 20:11 323 13.9
2019-Nov-18 20:06 323 13.9
2019-Nov-18 20:01 323 13.9
2019-Nov-18 19:56 323 13.9
2019-Nov-18 19:51 323 13.9
2019-Nov-18 19:46 323 14.4
2019-Nov-18 19:41 323 14.4
2019-Nov-18 19:36 311 14.4
2019-Nov-18 19:31 311 14.4
2019-Nov-18 19:26 311 14.4
2019-Nov-18 19:21 314 14.4
2019-Nov-18 19:16 326 14.4
2019-Nov-18 19:11 312 14.4
2019-Nov-18 19:06 313 14.4
2019-Nov-18 19:01 313 13.9
2019-Nov-18 18:56 313 13.9
2019-Nov-18 18:51 313 13.9
2019-Nov-18 18:46 313 13.9
2019-Nov-18 18:41 313 13.9
2019-Nov-18 18:36 312 13.9
2019-Nov-18 18:31 311 13.9
2019-Nov-18 18:26 311 13.9
2019-Nov-18 18:21 311 13.3
2019-Nov-18 18:16 311 13.3
2019-Nov-18 18:10 311 13.3
2019-Nov-18 18:05 311 13.3
2019-Nov-18 18:00 311 0 gusting 4 13.3
2019-Nov-18 17:55 311 0 gusting 4 13.3
2019-Nov-18 17:50 325 12.8
2019-Nov-18 17:45 305 13.3
2019-Nov-18 17:40 299 12.8
2019-Nov-18 17:35 355 12.8
2019-Nov-18 17:30 011 12.8
2019-Nov-18 17:25 331 12.8
2019-Nov-18 17:20 12.8
2019-Nov-18 17:15 12.8
2019-Nov-18 17:10 12.8
2019-Nov-18 17:05 12.2
2019-Nov-18 17:00 12.2